Year,Month,Day,Hour,Minute,Value (Times are PST for barometer in hPa)
2013,09,29,00,00,995.36
2013,09,29,00,01,995.36
2013,09,29,00,02,995.36
2013,09,29,00,03,995.36
2013,09,29,00,04,995.36
2013,09,29,00,05,995.36
2013,09,29,00,06,995.36
2013,09,29,00,07,995.36
2013,09,29,00,08,995.36
2013,09,29,00,09,995.36
2013,09,29,00,10,995.36
2013,09,29,00,11,995.36
2013,09,29,00,12,995.36
2013,09,29,00,13,995.36
2013,09,29,00,14,995.37
2013,09,29,00,15,995.56
2013,09,29,00,16,995.56
2013,09,29,00,17,995.56
2013,09,29,00,18,995.56
2013,09,29,00,19,995.56
2013,09,29,00,20,995.56
2013,09,29,00,21,995.56
2013,09,29,00,22,995.56
2013,09,29,00,23,995.56
2013,09,29,00,24,995.56
2013,09,29,00,25,995.56
2013,09,29,00,26,995.56
2013,09,29,00,27,995.56
2013,09,29,00,28,995.56
2013,09,29,00,29,995.56
2013,09,29,00,30,995.46
2013,09,29,00,31,995.46
2013,09,29,00,32,995.46
2013,09,29,00,33,995.46
2013,09,29,00,34,995.46
2013,09,29,00,35,995.46
2013,09,29,00,36,995.46
2013,09,29,00,37,995.46
2013,09,29,00,38,995.46
2013,09,29,00,39,995.46
2013,09,29,00,40,995.46
2013,09,29,00,41,995.46
2013,09,29,00,42,995.46
2013,09,29,00,43,995.46
2013,09,29,00,44,995.46
2013,09,29,00,45,995.56
2013,09,29,00,46,995.56
2013,09,29,00,47,995.56
2013,09,29,00,48,995.56
2013,09,29,00,49,995.56
2013,09,29,00,50,995.56
2013,09,29,00,51,995.56
2013,09,29,00,52,995.56
2013,09,29,00,53,995.56
2013,09,29,00,54,995.56
2013,09,29,00,55,995.56
2013,09,29,00,56,995.56
2013,09,29,00,57,995.56
2013,09,29,00,58,995.56
2013,09,29,00,59,995.56
2013,09,29,01,00,995.77
2013,09,29,01,01,995.77
2013,09,29,01,02,995.77
2013,09,29,01,03,995.77
2013,09,29,01,04,995.77
2013,09,29,01,05,995.77
2013,09,29,01,06,995.77
2013,09,29,01,07,995.77
2013,09,29,01,08,995.77
2013,09,29,01,09,995.77
2013,09,29,01,10,995.77
2013,09,29,01,11,995.77
2013,09,29,01,12,995.77
2013,09,29,01,13,995.77
2013,09,29,01,14,995.77
2013,09,29,01,15,995.84
2013,09,29,01,16,995.84
2013,09,29,01,17,995.84
2013,09,29,01,18,995.84
2013,09,29,01,19,995.84
2013,09,29,01,20,995.84
2013,09,29,01,21,995.84
2013,09,29,01,22,995.84
2013,09,29,01,23,995.84
2013,09,29,01,24,995.84
2013,09,29,01,25,995.84
2013,09,29,01,26,995.84
2013,09,29,01,27,995.84
2013,09,29,01,28,995.84
2013,09,29,01,29,995.84
2013,09,29,01,30,996.07
2013,09,29,01,31,996.07
2013,09,29,01,32,996.07
2013,09,29,01,33,996.07
2013,09,29,01,34,996.07
2013,09,29,01,35,996.07
2013,09,29,01,36,996.07
2013,09,29,01,37,996.07
2013,09,29,01,38,996.07
2013,09,29,01,39,996.07
2013,09,29,01,40,996.07
2013,09,29,01,41,996.07
2013,09,29,01,42,996.07
2013,09,29,01,43,996.07
2013,09,29,01,44,996.06
2013,09,29,01,45,995.90
2013,09,29,01,46,995.90
2013,09,29,01,47,995.90
2013,09,29,01,48,995.90
2013,09,29,01,49,995.90
2013,09,29,01,50,995.90
2013,09,29,01,51,995.90
2013,09,29,01,52,995.90
2013,09,29,01,53,995.90
2013,09,29,01,54,995.90
2013,09,29,01,55,995.90
2013,09,29,01,56,995.90
2013,09,29,01,57,995.90
2013,09,29,01,58,995.90
2013,09,29,01,59,995.91
2013,09,29,02,00,996.04
2013,09,29,02,01,996.04
2013,09,29,02,02,996.04
2013,09,29,02,03,996.04
2013,09,29,02,04,996.04
2013,09,29,02,05,996.04
2013,09,29,02,06,996.04
2013,09,29,02,07,996.04
2013,09,29,02,08,996.04
2013,09,29,02,09,996.04
2013,09,29,02,10,996.04
2013,09,29,02,11,996.04
2013,09,29,02,12,996.04
2013,09,29,02,13,996.04
2013,09,29,02,14,996.04
2013,09,29,02,15,995.97
2013,09,29,02,16,995.97
2013,09,29,02,17,995.97
2013,09,29,02,18,995.97
2013,09,29,02,19,995.97
2013,09,29,02,20,995.97
2013,09,29,02,21,995.97
2013,09,29,02,22,995.97
2013,09,29,02,23,995.97
2013,09,29,02,24,995.97
2013,09,29,02,25,995.97
2013,09,29,02,26,995.97
2013,09,29,02,27,995.97
2013,09,29,02,28,995.97
2013,09,29,02,29,995.97
2013,09,29,02,30,996.45
2013,09,29,02,31,996.45
2013,09,29,02,32,996.45
2013,09,29,02,33,996.45
2013,09,29,02,34,996.45
2013,09,29,02,35,996.45
2013,09,29,02,36,996.45
2013,09,29,02,37,996.45
2013,09,29,02,38,996.45
2013,09,29,02,39,996.45
2013,09,29,02,40,996.45
2013,09,29,02,41,996.45
2013,09,29,02,42,996.45
2013,09,29,02,43,996.45
2013,09,29,02,44,996.45
2013,09,29,02,45,996.01
2013,09,29,02,46,996.01
2013,09,29,02,47,996.01
2013,09,29,02,48,996.01
2013,09,29,02,49,996.01
2013,09,29,02,50,996.01
2013,09,29,02,51,996.01
2013,09,29,02,52,996.01
2013,09,29,02,53,996.01
2013,09,29,02,54,996.01
2013,09,29,02,55,996.01
2013,09,29,02,56,996.01
2013,09,29,02,57,996.01
2013,09,29,02,58,996.01
2013,09,29,02,59,996.01
2013,09,29,03,00,995.90
2013,09,29,03,01,995.90
2013,09,29,03,02,995.90
2013,09,29,03,03,995.90
2013,09,29,03,04,995.90
2013,09,29,03,05,995.90
2013,09,29,03,06,995.90
2013,09,29,03,07,995.90
2013,09,29,03,08,995.90
2013,09,29,03,09,995.90
2013,09,29,03,10,995.90
2013,09,29,03,11,995.90
2013,09,29,03,12,995.90
2013,09,29,03,13,995.90
2013,09,29,03,14,995.91
2013,09,29,03,15,996.17
2013,09,29,03,16,996.17
2013,09,29,03,17,996.17
2013,09,29,03,18,996.17
2013,09,29,03,19,996.17
2013,09,29,03,20,996.17
2013,09,29,03,21,996.17
2013,09,29,03,22,996.17
2013,09,29,03,23,996.17
2013,09,29,03,24,996.17
2013,09,29,03,25,996.17
2013,09,29,03,26,996.17
2013,09,29,03,27,996.17
2013,09,29,03,28,996.17
2013,09,29,03,29,996.16
2013,09,29,03,30,995.90
2013,09,29,03,31,995.90
2013,09,29,03,32,995.90
2013,09,29,03,33,995.90
2013,09,29,03,34,995.90
2013,09,29,03,35,995.90
2013,09,29,03,36,995.90
2013,09,29,03,37,995.90
2013,09,29,03,38,995.90
2013,09,29,03,39,995.90
2013,09,29,03,40,995.90
2013,09,29,03,41,995.90
2013,09,29,03,42,995.90
2013,09,29,03,43,995.90
2013,09,29,03,44,995.90
2013,09,29,03,45,995.97
2013,09,29,03,46,995.97
2013,09,29,03,47,995.97
2013,09,29,03,48,995.97
2013,09,29,03,49,995.97
2013,09,29,03,50,995.97
2013,09,29,03,51,995.97
2013,09,29,03,52,995.97
2013,09,29,03,53,995.97
2013,09,29,03,54,995.97
2013,09,29,03,55,995.97
2013,09,29,03,56,995.97
2013,09,29,03,57,995.97
2013,09,29,03,58,995.97
2013,09,29,03,59,995.98
2013,09,29,04,00,996.17
2013,09,29,04,01,996.17
2013,09,29,04,02,996.17
2013,09,29,04,03,996.17
2013,09,29,04,04,996.17
2013,09,29,04,05,996.17
2013,09,29,04,06,996.17
2013,09,29,04,07,996.17
2013,09,29,04,08,996.17
2013,09,29,04,09,996.17
2013,09,29,04,10,996.17
2013,09,29,04,11,996.17
2013,09,29,04,12,996.17
2013,09,29,04,13,996.17
2013,09,29,04,14,996.17
2013,09,29,04,15,996.41
2013,09,29,04,16,996.41
2013,09,29,04,17,996.41
2013,09,29,04,18,996.41
2013,09,29,04,19,996.41
2013,09,29,04,20,996.41
2013,09,29,04,21,996.41
2013,09,29,04,22,996.41
2013,09,29,04,23,996.41
2013,09,29,04,24,996.41
2013,09,29,04,25,996.41
2013,09,29,04,26,996.41
2013,09,29,04,27,996.41
2013,09,29,04,28,996.41
2013,09,29,04,29,996.41
2013,09,29,04,30,996.45
2013,09,29,04,31,996.45
2013,09,29,04,32,996.45
2013,09,29,04,33,996.45
2013,09,29,04,34,996.45
2013,09,29,04,35,996.45
2013,09,29,04,36,996.45
2013,09,29,04,37,996.45
2013,09,29,04,38,996.45
2013,09,29,04,39,996.45
2013,09,29,04,40,996.45
2013,09,29,04,41,996.45
2013,09,29,04,42,996.45
2013,09,29,04,43,996.45
2013,09,29,04,44,996.43
2013,09,29,04,45,996.11
2013,09,29,04,46,996.11
2013,09,29,04,47,996.11
2013,09,29,04,48,996.11
2013,09,29,04,49,996.11
2013,09,29,04,50,996.11
2013,09,29,04,51,996.11
2013,09,29,04,52,996.11
2013,09,29,04,53,996.11
2013,09,29,04,54,996.11
2013,09,29,04,55,996.11
2013,09,29,04,56,996.11
2013,09,29,04,57,996.11
2013,09,29,04,58,996.11
2013,09,29,04,59,996.11
2013,09,29,05,00,996.41
2013,09,29,05,01,996.41
2013,09,29,05,02,996.41
2013,09,29,05,03,996.41
2013,09,29,05,04,996.41
2013,09,29,05,05,996.41
2013,09,29,05,06,996.41
2013,09,29,05,07,996.41
2013,09,29,05,08,996.41
2013,09,29,05,09,996.41
2013,09,29,05,10,996.41
2013,09,29,05,11,996.41
2013,09,29,05,12,996.41
2013,09,29,05,13,996.41
2013,09,29,05,14,996.41
2013,09,29,05,15,996.41
2013,09,29,05,16,996.41
2013,09,29,05,17,996.41
2013,09,29,05,18,996.41
2013,09,29,05,19,996.41
2013,09,29,05,20,996.41
2013,09,29,05,21,996.41
2013,09,29,05,22,996.41
2013,09,29,05,23,996.41
2013,09,29,05,24,996.41
2013,09,29,05,25,996.41
2013,09,29,05,26,996.41
2013,09,29,05,27,996.41
2013,09,29,05,28,996.41
2013,09,29,05,29,996.41
2013,09,29,05,30,996.41
2013,09,29,05,31,996.41
2013,09,29,05,32,996.41
2013,09,29,05,33,996.41
2013,09,29,05,34,996.41
2013,09,29,05,35,996.41
2013,09,29,05,36,996.41
2013,09,29,05,37,996.41
2013,09,29,05,38,996.41
2013,09,29,05,39,996.41
2013,09,29,05,40,996.41
2013,09,29,05,41,996.41
2013,09,29,05,42,996.41
2013,09,29,05,43,996.41
2013,09,29,05,44,996.41
2013,09,29,05,45,996.85
2013,09,29,05,46,996.85
2013,09,29,05,47,996.85
2013,09,29,05,48,996.85
2013,09,29,05,49,996.85
2013,09,29,05,50,996.85
2013,09,29,05,51,996.85
2013,09,29,05,52,996.85
2013,09,29,05,53,996.85
2013,09,29,05,54,996.85
2013,09,29,05,55,996.85
2013,09,29,05,56,996.85
2013,09,29,05,57,996.85
2013,09,29,05,58,996.85
2013,09,29,05,59,996.85
2013,09,29,06,00,996.92
2013,09,29,06,01,996.92
2013,09,29,06,02,996.92
2013,09,29,06,03,996.92
2013,09,29,06,04,996.92
2013,09,29,06,05,996.92
2013,09,29,06,06,996.92
2013,09,29,06,07,996.92
2013,09,29,06,08,996.92
2013,09,29,06,09,996.92
2013,09,29,06,10,996.92
2013,09,29,06,11,996.92
2013,09,29,06,12,996.92
2013,09,29,06,13,996.92
2013,09,29,06,14,996.92
2013,09,29,06,15,996.72
2013,09,29,06,16,996.72
2013,09,29,06,17,996.72
2013,09,29,06,18,996.72
2013,09,29,06,19,996.72
2013,09,29,06,20,996.72
2013,09,29,06,21,996.72
2013,09,29,06,22,996.72
2013,09,29,06,23,996.72
2013,09,29,06,24,996.72
2013,09,29,06,25,996.72
2013,09,29,06,26,996.72
2013,09,29,06,27,996.72
2013,09,29,06,28,996.72
2013,09,29,06,29,996.72
2013,09,29,06,30,996.85
2013,09,29,06,31,996.85
2013,09,29,06,32,996.85
2013,09,29,06,33,996.85
2013,09,29,06,34,996.85
2013,09,29,06,35,996.85
2013,09,29,06,36,996.85
2013,09,29,06,37,996.85
2013,09,29,06,38,996.85
2013,09,29,06,39,996.85
2013,09,29,06,40,996.85
2013,09,29,06,41,996.85
2013,09,29,06,42,996.85
2013,09,29,06,43,996.85
2013,09,29,06,44,996.83
2013,09,29,06,45,996.48
2013,09,29,06,46,996.48
2013,09,29,06,47,996.48
2013,09,29,06,48,996.48
2013,09,29,06,49,996.48
2013,09,29,06,50,996.48
2013,09,29,06,51,996.48
2013,09,29,06,52,996.48
2013,09,29,06,53,996.48
2013,09,29,06,54,996.48
2013,09,29,06,55,996.48
2013,09,29,06,56,996.48
2013,09,29,06,57,996.48
2013,09,29,06,58,996.48
2013,09,29,06,59,996.48
2013,09,29,07,00,996.48
2013,09,29,07,01,996.48
2013,09,29,07,02,996.48
2013,09,29,07,03,996.48
2013,09,29,07,04,996.48
2013,09,29,07,05,996.48
2013,09,29,07,06,996.48
2013,09,29,07,07,996.48
2013,09,29,07,08,996.48
2013,09,29,07,09,996.48
2013,09,29,07,10,996.48
2013,09,29,07,11,996.48
2013,09,29,07,12,996.48
2013,09,29,07,13,996.48
2013,09,29,07,14,996.48
2013,09,29,07,15,996.95
2013,09,29,07,16,996.95
2013,09,29,07,17,996.95
2013,09,29,07,18,996.95
2013,09,29,07,19,996.95
2013,09,29,07,20,996.95
2013,09,29,07,21,996.95
2013,09,29,07,22,996.95
2013,09,29,07,23,996.95
2013,09,29,07,24,996.95
2013,09,29,07,25,996.95
2013,09,29,07,26,996.95
2013,09,29,07,27,996.95
2013,09,29,07,28,996.95
2013,09,29,07,29,996.97
2013,09,29,07,30,997.29
2013,09,29,07,31,997.29
2013,09,29,07,32,997.29
2013,09,29,07,33,997.29
2013,09,29,07,34,997.29
2013,09,29,07,35,997.29
2013,09,29,07,36,997.29
2013,09,29,07,37,997.29
2013,09,29,07,38,997.29
2013,09,29,07,39,997.29
2013,09,29,07,40,997.29
2013,09,29,07,41,997.29
2013,09,29,07,42,997.29
2013,09,29,07,43,997.29
2013,09,29,07,44,997.29
2013,09,29,07,45,997.22
2013,09,29,07,46,997.22
2013,09,29,07,47,997.22
2013,09,29,07,48,997.22
2013,09,29,07,49,997.22
2013,09,29,07,50,997.22
2013,09,29,07,51,997.22
2013,09,29,07,52,997.22
2013,09,29,07,53,997.22
2013,09,29,07,54,997.22
2013,09,29,07,55,997.22
2013,09,29,07,56,997.22
2013,09,29,07,57,997.22
2013,09,29,07,58,997.22
2013,09,29,07,59,997.22
2013,09,29,08,00,997.39
2013,09,29,08,01,997.39
2013,09,29,08,02,997.39
2013,09,29,08,03,997.39
2013,09,29,08,04,997.39
2013,09,29,08,05,997.39
2013,09,29,08,06,997.39
2013,09,29,08,07,997.39
2013,09,29,08,08,997.39
2013,09,29,08,09,997.39
2013,09,29,08,10,997.39
2013,09,29,08,11,997.39
2013,09,29,08,12,997.39
2013,09,29,08,13,997.39
2013,09,29,08,14,997.39
2013,09,29,08,15,997.46
2013,09,29,08,16,997.46
2013,09,29,08,17,997.46
2013,09,29,08,18,997.46
2013,09,29,08,19,997.46
2013,09,29,08,20,997.46
2013,09,29,08,21,997.46
2013,09,29,08,22,997.46
2013,09,29,08,23,997.46
2013,09,29,08,24,997.46
2013,09,29,08,25,997.46
2013,09,29,08,26,997.46
2013,09,29,08,27,997.46
2013,09,29,08,28,997.46
2013,09,29,08,29,997.46
2013,09,29,08,30,997.43
2013,09,29,08,31,997.43
2013,09,29,08,32,997.43
2013,09,29,08,33,997.43
2013,09,29,08,34,997.43
2013,09,29,08,35,997.43
2013,09,29,08,36,997.43
2013,09,29,08,37,997.43
2013,09,29,08,38,997.43
2013,09,29,08,39,997.43
2013,09,29,08,40,997.43
2013,09,29,08,41,997.43
2013,09,29,08,42,997.43
2013,09,29,08,43,997.43
2013,09,29,08,44,997.43
2013,09,29,08,45,997.46
2013,09,29,08,46,997.46
2013,09,29,08,47,997.46
2013,09,29,08,48,997.46
2013,09,29,08,49,997.46
2013,09,29,08,50,997.46
2013,09,29,08,51,997.46
2013,09,29,08,52,997.46
2013,09,29,08,53,997.46
2013,09,29,08,54,997.46
2013,09,29,08,55,997.46
2013,09,29,08,56,997.46
2013,09,29,08,57,997.46
2013,09,29,08,58,997.46
2013,09,29,08,59,997.46
2013,09,29,09,00,997.46
2013,09,29,09,01,997.46
2013,09,29,09,02,997.46
2013,09,29,09,03,997.46
2013,09,29,09,04,997.46
2013,09,29,09,05,997.46
2013,09,29,09,06,997.46
2013,09,29,09,07,997.46
2013,09,29,09,08,997.46
2013,09,29,09,09,997.46
2013,09,29,09,10,997.46
2013,09,29,09,11,997.46
2013,09,29,09,12,997.46
2013,09,29,09,13,997.46
2013,09,29,09,14,997.46
2013,09,29,09,15,997.46
2013,09,29,09,16,997.46
2013,09,29,09,17,997.46
2013,09,29,09,18,997.46
2013,09,29,09,19,997.46
2013,09,29,09,20,997.46
2013,09,29,09,21,997.46
2013,09,29,09,22,997.46
2013,09,29,09,23,997.46
2013,09,29,09,24,997.46
2013,09,29,09,25,997.46
2013,09,29,09,26,997.46
2013,09,29,09,27,997.46
2013,09,29,09,28,997.46
2013,09,29,09,29,997.46
2013,09,29,09,30,997.94
2013,09,29,09,31,997.94
2013,09,29,09,32,997.94
2013,09,29,09,33,997.94
2013,09,29,09,34,997.94
2013,09,29,09,35,997.94
2013,09,29,09,36,997.94
2013,09,29,09,37,997.94
2013,09,29,09,38,997.94
2013,09,29,09,39,997.94
2013,09,29,09,40,997.94
2013,09,29,09,41,997.94
2013,09,29,09,42,997.94
2013,09,29,09,43,997.94
2013,09,29,09,44,997.94
2013,09,29,09,45,997.97
2013,09,29,09,46,997.97
2013,09,29,09,47,997.97
2013,09,29,09,48,997.97
2013,09,29,09,49,997.97
2013,09,29,09,50,997.97
2013,09,29,09,51,997.97
2013,09,29,09,52,997.97
2013,09,29,09,53,997.97
2013,09,29,09,54,997.97
2013,09,29,09,55,997.97
2013,09,29,09,56,997.97
2013,09,29,09,57,997.97
2013,09,29,09,58,997.97
2013,09,29,09,59,997.97
2013,09,29,10,00,997.77
2013,09,29,10,01,997.77
2013,09,29,10,02,997.77
2013,09,29,10,03,997.77
2013,09,29,10,04,997.77
2013,09,29,10,05,997.77
2013,09,29,10,06,997.77
2013,09,29,10,07,997.77
2013,09,29,10,08,997.77
2013,09,29,10,09,997.77
2013,09,29,10,10,997.77
2013,09,29,10,11,997.77
2013,09,29,10,12,997.77
2013,09,29,10,13,997.77
2013,09,29,10,14,997.77
2013,09,29,10,15,997.77
2013,09,29,10,16,997.77
2013,09,29,10,17,997.77
2013,09,29,10,18,997.77
2013,09,29,10,19,997.77
2013,09,29,10,20,997.77
2013,09,29,10,21,997.77
2013,09,29,10,22,997.77
2013,09,29,10,23,997.77
2013,09,29,10,24,997.77
2013,09,29,10,25,997.77
2013,09,29,10,26,997.77
2013,09,29,10,27,997.77
2013,09,29,10,28,997.77
2013,09,29,10,29,997.76
2013,09,29,10,30,997.50
2013,09,29,10,31,997.50
2013,09,29,10,32,997.50
2013,09,29,10,33,997.50
2013,09,29,10,34,997.50
2013,09,29,10,35,997.50
2013,09,29,10,36,997.50
2013,09,29,10,37,997.50
2013,09,29,10,38,997.50
2013,09,29,10,39,997.50
2013,09,29,10,40,997.50
2013,09,29,10,41,997.50
2013,09,29,10,42,997.50
2013,09,29,10,43,997.50
2013,09,29,10,44,997.50
2013,09,29,10,45,997.46
2013,09,29,10,46,997.46
2013,09,29,10,47,997.46
2013,09,29,10,48,997.46
2013,09,29,10,49,997.46
2013,09,29,10,50,997.46
2013,09,29,10,51,997.46
2013,09,29,10,52,997.46
2013,09,29,10,53,997.46
2013,09,29,10,54,997.46
2013,09,29,10,55,997.46
2013,09,29,10,56,997.46
2013,09,29,10,57,997.46
2013,09,29,10,58,997.46
2013,09,29,10,59,997.46
2013,09,29,11,00,997.46
2013,09,29,11,01,997.46
2013,09,29,11,02,997.46
2013,09,29,11,03,997.46
2013,09,29,11,04,997.46
2013,09,29,11,05,997.46
2013,09,29,11,06,997.46
2013,09,29,11,07,997.46
2013,09,29,11,08,997.46
2013,09,29,11,09,997.46
2013,09,29,11,10,997.46
2013,09,29,11,11,997.46
2013,09,29,11,12,997.46
2013,09,29,11,13,997.46
2013,09,29,11,14,997.46
2013,09,29,11,15,997.46
2013,09,29,11,16,997.46
2013,09,29,11,17,997.46
2013,09,29,11,18,997.46
2013,09,29,11,19,997.46
2013,09,29,11,20,997.46
2013,09,29,11,21,997.46
2013,09,29,11,22,997.46
2013,09,29,11,23,997.46
2013,09,29,11,24,997.46
2013,09,29,11,25,997.46
2013,09,29,11,26,997.46
2013,09,29,11,27,997.46
2013,09,29,11,28,997.46
2013,09,29,11,29,997.46
2013,09,29,11,30,997.43
2013,09,29,11,31,997.43
2013,09,29,11,32,997.43
2013,09,29,11,33,997.43
2013,09,29,11,34,997.43
2013,09,29,11,35,997.43
2013,09,29,11,36,997.43
2013,09,29,11,37,997.43
2013,09,29,11,38,997.43
2013,09,29,11,39,997.43
2013,09,29,11,40,997.43
2013,09,29,11,41,997.43
2013,09,29,11,42,997.43
2013,09,29,11,43,997.43
2013,09,29,11,44,997.43
2013,09,29,11,45,997.33
2013,09,29,11,46,997.33
2013,09,29,11,47,997.33
2013,09,29,11,48,997.33
2013,09,29,11,49,997.33
2013,09,29,11,50,997.33
2013,09,29,11,51,997.33
2013,09,29,11,52,997.33
2013,09,29,11,53,997.33
2013,09,29,11,54,997.33
2013,09,29,11,55,997.33
2013,09,29,11,56,997.33
2013,09,29,11,57,997.33
2013,09,29,11,58,997.33
2013,09,29,11,59,997.33
2013,09,29,12,00,997.43
2013,09,29,12,01,997.43
2013,09,29,12,02,997.43
2013,09,29,12,03,997.43
2013,09,29,12,04,997.43
2013,09,29,12,05,997.43
2013,09,29,12,06,997.43
2013,09,29,12,07,997.43
2013,09,29,12,08,997.43
2013,09,29,12,09,997.43
2013,09,29,12,10,997.43
2013,09,29,12,11,997.43
2013,09,29,12,12,997.43
2013,09,29,12,13,997.43
2013,09,29,12,14,997.43
2013,09,29,12,15,997.50
2013,09,29,12,16,997.50
2013,09,29,12,17,997.50
2013,09,29,12,18,997.50
2013,09,29,12,19,997.50
2013,09,29,12,20,997.50
2013,09,29,12,21,997.50
2013,09,29,12,22,997.50
2013,09,29,12,23,997.50
2013,09,29,12,24,997.50
2013,09,29,12,25,997.50
2013,09,29,12,26,997.50
2013,09,29,12,27,997.50
2013,09,29,12,28,997.50
2013,09,29,12,29,997.50
2013,09,29,12,30,997.50
2013,09,29,12,31,997.50
2013,09,29,12,32,997.50
2013,09,29,12,33,997.50
2013,09,29,12,34,997.50
2013,09,29,12,35,997.50
2013,09,29,12,36,997.50
2013,09,29,12,37,997.50
2013,09,29,12,38,997.50
2013,09,29,12,39,997.50
2013,09,29,12,40,997.50
2013,09,29,12,41,997.50
2013,09,29,12,42,997.50
2013,09,29,12,43,997.50
2013,09,29,12,44,997.50
2013,09,29,12,45,997.43
2013,09,29,12,46,997.43
2013,09,29,12,47,997.43
2013,09,29,12,48,997.43
2013,09,29,12,49,997.43
2013,09,29,12,50,997.43
2013,09,29,12,51,997.43
2013,09,29,12,52,997.43
2013,09,29,12,53,997.43
2013,09,29,12,54,997.43
2013,09,29,12,55,997.43
2013,09,29,12,56,997.43
2013,09,29,12,57,997.43
2013,09,29,12,58,997.43
2013,09,29,12,59,997.43
2013,09,29,13,00,996.99
2013,09,29,13,01,996.99
2013,09,29,13,02,996.99
2013,09,29,13,03,996.99
2013,09,29,13,04,996.99
2013,09,29,13,05,996.99
2013,09,29,13,06,996.99
2013,09,29,13,07,996.99
2013,09,29,13,08,996.99
2013,09,29,13,09,996.99
2013,09,29,13,10,996.99
2013,09,29,13,11,996.99
2013,09,29,13,12,996.99
2013,09,29,13,13,996.99
2013,09,29,13,14,996.99
2013,09,29,13,15,996.85
2013,09,29,13,16,996.85
2013,09,29,13,17,996.85
2013,09,29,13,18,996.85
2013,09,29,13,19,996.85
2013,09,29,13,20,996.85
2013,09,29,13,21,996.85
2013,09,29,13,22,996.85
2013,09,29,13,23,996.85
2013,09,29,13,24,996.85
2013,09,29,13,25,996.85
2013,09,29,13,26,996.85
2013,09,29,13,27,996.85
2013,09,29,13,28,996.85
2013,09,29,13,29,996.85
2013,09,29,13,30,996.45
2013,09,29,13,31,996.45
2013,09,29,13,32,996.45
2013,09,29,13,33,996.45
2013,09,29,13,34,996.45
2013,09,29,13,35,996.45
2013,09,29,13,36,996.45
2013,09,29,13,37,996.45
2013,09,29,13,38,996.45
2013,09,29,13,39,996.45
2013,09,29,13,40,996.45
2013,09,29,13,41,996.45
2013,09,29,13,42,996.45
2013,09,29,13,43,996.45
2013,09,29,13,44,996.45
2013,09,29,13,45,996.41
2013,09,29,13,46,996.41
2013,09,29,13,47,996.41
2013,09,29,13,48,996.41
2013,09,29,13,49,996.41
2013,09,29,13,50,996.41
2013,09,29,13,51,996.41
2013,09,29,13,52,996.41
2013,09,29,13,53,996.41
2013,09,29,13,54,996.41
2013,09,29,13,55,996.41
2013,09,29,13,56,996.41
2013,09,29,13,57,996.41
2013,09,29,13,58,996.41
2013,09,29,13,59,996.41
2013,09,29,14,00,996.21
2013,09,29,14,01,996.21
2013,09,29,14,02,996.21
2013,09,29,14,03,996.21
2013,09,29,14,04,996.21
2013,09,29,14,05,996.21
2013,09,29,14,06,996.21
2013,09,29,14,07,996.21
2013,09,29,14,08,996.21
2013,09,29,14,09,996.21
2013,09,29,14,10,996.21
2013,09,29,14,11,996.21
2013,09,29,14,12,996.21
2013,09,29,14,13,996.21
2013,09,29,14,14,996.21
2013,09,29,14,15,995.94
2013,09,29,14,16,995.94
2013,09,29,14,17,995.94
2013,09,29,14,18,995.94
2013,09,29,14,19,995.94
2013,09,29,14,20,995.94
2013,09,29,14,21,995.94
2013,09,29,14,22,995.94
2013,09,29,14,23,995.94
2013,09,29,14,24,995.94
2013,09,29,14,25,995.94
2013,09,29,14,26,995.94
2013,09,29,14,27,995.94
2013,09,29,14,28,995.94
2013,09,29,14,29,995.94
2013,09,29,14,30,995.53
2013,09,29,14,31,995.53
2013,09,29,14,32,995.53
2013,09,29,14,33,995.53
2013,09,29,14,34,995.53
2013,09,29,14,35,995.53
2013,09,29,14,36,995.53
2013,09,29,14,37,995.53
2013,09,29,14,38,995.53
2013,09,29,14,39,995.53
2013,09,29,14,40,995.53
2013,09,29,14,41,995.53
2013,09,29,14,42,995.53
2013,09,29,14,43,995.53
2013,09,29,14,44,995.53
2013,09,29,14,45,995.09
2013,09,29,14,46,995.09
2013,09,29,14,47,995.09
2013,09,29,14,48,995.09
2013,09,29,14,49,995.09
2013,09,29,14,50,995.09
2013,09,29,14,51,995.09
2013,09,29,14,52,995.09
2013,09,29,14,53,995.09
2013,09,29,14,54,995.09
2013,09,29,14,55,995.09
2013,09,29,14,56,995.09
2013,09,29,14,57,995.09
2013,09,29,14,58,995.09
2013,09,29,14,59,995.09
2013,09,29,15,00,994.48
2013,09,29,15,01,994.48
2013,09,29,15,02,994.48
2013,09,29,15,03,994.48
2013,09,29,15,04,994.48
2013,09,29,15,05,994.48
2013,09,29,15,06,994.48
2013,09,29,15,07,994.48
2013,09,29,15,08,994.48
2013,09,29,15,09,994.48
2013,09,29,15,10,994.48
2013,09,29,15,11,994.48
2013,09,29,15,12,994.48
2013,09,29,15,13,994.48
2013,09,29,15,14,994.48
2013,09,29,15,15,994.18
2013,09,29,15,16,994.18
2013,09,29,15,17,994.18
2013,09,29,15,18,994.18
2013,09,29,15,19,994.18
2013,09,29,15,20,994.18
2013,09,29,15,21,994.18
2013,09,29,15,22,994.18
2013,09,29,15,23,994.18
2013,09,29,15,24,994.18
2013,09,29,15,25,994.18
2013,09,29,15,26,994.18
2013,09,29,15,27,994.18
2013,09,29,15,28,994.18
2013,09,29,15,29,994.18
2013,09,29,15,30,993.70
2013,09,29,15,31,993.70
2013,09,29,15,32,993.70
2013,09,29,15,33,993.70
2013,09,29,15,34,993.70
2013,09,29,15,35,993.70
2013,09,29,15,36,993.70
2013,09,29,15,37,993.70
2013,09,29,15,38,993.70
2013,09,29,15,39,993.70
2013,09,29,15,40,993.70
2013,09,29,15,41,993.70
2013,09,29,15,42,993.70
2013,09,29,15,43,993.70
2013,09,29,15,44,993.70
2013,09,29,15,45,993.03
2013,09,29,15,46,993.03
2013,09,29,15,47,993.03
2013,09,29,15,48,993.03
2013,09,29,15,49,993.03
2013,09,29,15,50,993.03
2013,09,29,15,51,993.03
2013,09,29,15,52,993.03
2013,09,29,15,53,993.03
2013,09,29,15,54,993.03
2013,09,29,15,55,993.03
2013,09,29,15,56,993.03
2013,09,29,15,57,993.03
2013,09,29,15,58,993.03
2013,09,29,15,59,993.03
2013,09,29,16,00,992.69
2013,09,29,16,01,992.69
2013,09,29,16,02,992.69
2013,09,29,16,03,992.69
2013,09,29,16,04,992.69
2013,09,29,16,05,992.69
2013,09,29,16,06,992.69
2013,09,29,16,07,992.69
2013,09,29,16,08,992.69
2013,09,29,16,09,992.69
2013,09,29,16,10,992.69
2013,09,29,16,11,992.69
2013,09,29,16,12,992.69
2013,09,29,16,13,992.69
2013,09,29,16,14,992.69
2013,09,29,16,15,992.14
2013,09,29,16,16,992.14
2013,09,29,16,17,992.14
2013,09,29,16,18,992.14
2013,09,29,16,19,992.14
2013,09,29,16,20,992.14
2013,09,29,16,21,992.14
2013,09,29,16,22,992.14
2013,09,29,16,23,992.14
2013,09,29,16,24,992.14
2013,09,29,16,25,992.14
2013,09,29,16,26,992.14
2013,09,29,16,27,992.14
2013,09,29,16,28,992.14
2013,09,29,16,29,992.14
2013,09,29,16,30,991.67
2013,09,29,16,31,991.67
2013,09,29,16,32,991.67
2013,09,29,16,33,991.67
2013,09,29,16,34,991.67
2013,09,29,16,35,991.67
2013,09,29,16,36,991.67